Weather History for KLNS - October, 2011

Change the Weather History Date:

Tuesday, October 4, 2011

  Actual Average Record
Temperature  
Mean Temperature 53 °F -  
Max Temperature 64 °F 68 °F 84 °F (1983)
Min Temperature 42 °F 47 °F 32 °F (1996)
Degree Days  
Heating Degree Days 12    
Growing Degree Days 3 (Base 50)    
Moisture  
Dew Point 48 °F    
Average Humidity 83    
Maximum Humidity 100    
Minimum Humidity 60    
Precipitation  
Precipitation 0.01 in - - ()
Sea Level Pressure  
Sea Level Pressure 30.10 in    
Wind  
Wind Speed 7 mph (WNW)    
Max Wind Speed 16 mph    
Max Gust Speed 23 mph    
Visibility 8 miles    
Events      
Averages and records for this station are not official NWS values.
T = Trace of Precipitation, MM = Missing Value Source: NWS Daily Summary

Daily Weather History Graph

Daily Weather History Graph

Search for Another Location

Airport or City:

Trip Planner

Search our weather history database for the weather conditions in past years. The results will help you decide how hot, cold, wet, or windy it might be!

Date:

Astronomy

Oct. 04, 2011 Rise Set
Actual Time 7:04 AM EDT 6:43 PM EDT
Civil Twilight 6:37 AM EDT 7:10 PM EDT
Nautical Twilight 6:05 AM EDT 7:41 PM EDT
Astronomical Twilight 5:34 AM EDT 8:13 PM EDT
Moon 2:43 PM EDT (10/4) No Moon Set
Length of Visible Light 12h 33m
Length of Day
11h 38m
First Quarter, 56% of the Moon is Illuminated
Oct 4
First Quarter
Oct 11
Full
Oct 19
Last Quarter
Oct 26
New
Nov 2
First Quarter

Hourly Weather History & Observations

Time (EDT) Temp. Windchill Dew Point Humidity Pressure Visibility Wind Dir Wind Speed Gust Speed Precip Events Conditions
12:53 AM 46.9 °F - 45.0 °F 93% 30.09 in 4.0 mi West 4.6 mph - N/A   Overcast
1:53 AM 48.0 °F - 46.0 °F 93% 30.08 in 5.0 mi WNW 4.6 mph - N/A   Overcast
2:53 AM 48.0 °F - 46.0 °F 93% 30.06 in 6.0 mi WNW 5.8 mph - N/A   Overcast
3:53 AM 46.9 °F - 45.0 °F 93% 30.06 in 6.0 mi WSW 3.5 mph - N/A   Scattered Clouds
4:53 AM 45.0 °F 42.6 °F 43.0 °F 93% 30.07 in 4.0 mi West 4.6 mph - N/A   Clear
5:33 AM 42.8 °F 39.3 °F 42.8 °F 100% 30.07 in 2.5 mi WNW 5.8 mph - N/A   Partly Cloudy
5:49 AM 44.6 °F 41.4 °F 42.8 °F 93% 30.08 in 3.0 mi West 5.8 mph - N/A   Partly Cloudy
5:53 AM 44.1 °F 39.5 °F 43.0 °F 96% 30.09 in 4.0 mi WNW 8.1 mph - N/A   Partly Cloudy
7:53 AM 46.9 °F - 46.0 °F 97% 30.11 in 4.0 mi West 3.5 mph - N/A   Overcast
8:53 AM 48.9 °F - 46.9 °F 93% 30.12 in 5.0 mi West 6.9 mph - N/A   Partly Cloudy
10:03 AM 53.6 °F - 48.2 °F 82% 30.13 in 10.0 mi NW 8.1 mph - N/A   Overcast
10:27 AM 53.6 °F - 48.2 °F 82% 30.12 in 10.0 mi WNW 11.5 mph - N/A   Overcast
11:36 AM 57.2 °F - 51.8 °F 82% 30.11 in 10.0 mi WNW 10.4 mph - 0.01 in   Mostly Cloudy
11:53 AM 57.9 °F - 51.1 °F 78% 30.12 in 10.0 mi NW 10.4 mph - 0.01 in   Overcast
12:40 PM 60.8 °F - 51.8 °F 72% 30.11 in 10.0 mi NW 13.8 mph 19.6 mph N/A   Mostly Cloudy
12:53 PM 62.1 °F - 52.0 °F 70% 30.10 in 10.0 mi NW 11.5 mph - N/A   Mostly Cloudy
1:53 PM 62.1 °F - 51.1 °F 67% 30.09 in 10.0 mi NNW 10.4 mph - N/A   Overcast
2:53 PM 64.9 °F - 51.1 °F 61% 30.08 in 10.0 mi WNW 16.1 mph 23.0 mph N/A   Overcast
3:53 PM 63.0 °F - 50.0 °F 63% 30.08 in 10.0 mi NW 11.5 mph 18.4 mph N/A   Overcast
4:53 PM 64.0 °F - 50.0 °F 60% 30.07 in 10.0 mi NW 10.4 mph - N/A   Overcast
6:53 PM 62.1 °F - 51.1 °F 67% 30.11 in 10.0 mi NW 9.2 mph - N/A   Mostly Cloudy
9:53 PM 57.0 °F - 52.0 °F 83% 30.12 in 10.0 mi West 6.9 mph - N/A   Scattered Clouds
10:53 PM 54.0 °F - 51.1 °F 90% 30.12 in 10.0 mi WNW 5.8 mph - N/A   Clear
11:53 PM 54.0 °F - 51.1 °F 90% 30.12 in 10.0 mi WNW 8.1 mph - N/A   Clear